Date,TemperatureHighF,TemperatureAvgF,TemperatureLowF,DewpointHighF,DewpointAvgF,DewpointLowF,HumidityHigh,HumidityAvg,HumidityLow,PressureMaxIn,PressureMinIn,WindSpeedMaxMPH,WindSpeedAvgMPH,GustSpeedMaxMPH,PrecipitationSumIn
2012-1-1,79.5,66.7,57.9,60.2,54.5,49.1,85,67,36,30.30,30.18,9,1,12,0.00
2012-1-2,74.5,63.4,57.0,64.8,50.9,35.5,90,65,38,30.27,30.09,15,3,16,0.00
2012-1-3,58.6,53.0,44.1,43.6,29.4,18.9,74,42,25,30.39,30.21,18,2,18,0.00
2012-1-4,65.7,49.7,38.1,35.8,27.1,20.2,51,42,32,30.42,30.27,9,2,14,0.00
2012-1-5,67.8,53.5,43.2,41.3,31.4,24.7,71,45,23,30.36,30.21,9,1,9,0.00
2012-1-6,73.0,57.1,45.9,50.2,42.8,37.7,83,61,32,30.27,30.15,9,1,9,0.00
2012-1-7,74.1,60.2,48.7,51.1,45.6,41.2,83,62,32,30.21,30.12,13,1,13,0.00
2012-1-8,80.2,64.0,52.2,54.9,48.9,44.9,81,61,31,30.24,30.15,12,1,12,0.00
2012-1-9,82.6,66.8,56.8,57.7,52.9,47.3,83,64,32,30.21,30.09,8,1,9,0.00
2012-1-10,82.0,65.6,57.6,55.2,52.3,48.4,85,65,32,30.12,29.97,13,1,16,0.00
2012-1-11,72.9,68.4,62.6,66.1,61.0,55.1,89,77,69,30.00,29.83,26,4,29,0.01
2012-1-12,75.0,68.9,63.3,66.4,57.4,51.3,90,69,44,30.03,29.88,12,2,16,0.00
2012-1-13,74.3,65.6,59.9,63.0,51.9,38.5,90,63,40,30.24,30.03,9,1,12,0.00
2012-1-14,63.1,57.4,50.7,38.9,32.5,25.7,54,40,26,30.39,30.24,15,3,15,0.00
2012-1-15,73.2,56.8,42.6,36.2,30.9,25.4,63,40,22,30.47,30.33,13,2,18,0.00
2012-1-16,75.6,61.4,49.5,46.3,42.2,35.8,64,51,32,30.45,30.30,14,3,18,0.00
2012-1-17,79.2,64.8,53.2,53.9,49.3,45.5,79,60,32,30.33,30.18,13,2,18,0.00
2012-1-18,76.3,66.0,57.6,60.7,54.1,49.4,82,67,40,30.18,30.03,16,2,16,0.00
2012-1-19,77.9,67.0,58.5,61.7,46.8,31.9,89,55,21,30.18,30.03,16,2,16,0.00
2012-1-20,82.4,65.1,54.1,51.9,46.5,39.9,79,54,24,30.21,30.12,11,1,12,0.00
2012-1-21,80.2,65.6,55.4,55.2,50.6,46.4,81,61,31,30.18,30.06,13,2,15,0.00
2012-1-22,83.5,67.7,57.2,56.9,52.1,46.5,83,61,30,30.15,30.06,11,1,11,0.00
2012-1-23,82.4,68.8,60.6,63.9,56.6,51.2,88,67,35,30.15,30.09,12,2,12,0.00
2012-1-24,85.5,70.6,61.5,65.1,58.4,52.8,90,68,34,30.18,30.09,13,2,15,0.00
2012-1-25,83.7,72.2,64.0,65.8,57.5,52.1,90,63,35,30.18,30.09,12,3,12,0.00
2012-1-26,85.1,73.0,65.1,66.8,59.2,50.2,90,65,31,30.12,30.00,19,3,19,0.00
2012-1-27,76.8,69.8,65.7,68.1,62.9,58.9,91,79,54,30.09,29.97,22,2,27,0.12
2012-1-28,78.8,68.2,64.9,62.4,57.3,51.7,88,70,44,30.18,30.06,12,2,15,0.00
2012-1-29,78.4,68.5,63.0,53.5,49.7,45.4,69,53,33,30.30,30.15,12,3,14,0.00
2012-1-30,79.9,67.1,57.9,51.0,49.0,45.7,70,54,34,30.33,30.24,16,6,20,0.00
2012-1-31,83.7,69.7,60.6,54.3,51.2,47.4,74,54,31,30.33,30.21,12,4,18,0.00
2012-2-1,82.9,70.7,62.1,60.8,56.6,51.2,82,63,35,30.27,30.15,12,2,12,0.00
2012-2-2,80.4,71.5,0.0,65.5,60.1,0.0,87,68,44,30.18,30.09,9,1,11,0.00
2012-2-3,79.5,72.7,67.8,62.3,59.4,55.6,79,64,46,30.21,30.12,13,3,15,0.00
2012-2-4,86.0,73.5,67.8,62.7,59.0,53.3,78,62,34,30.18,30.06,19,4,19,0.00
2012-2-5,78.3,72.2,67.1,65.6,63.0,60.1,87,74,54,30.09,30.00,7,0,9,0.00
2012-2-6,78.8,71.3,68.4,70.5,64.9,61.0,89,81,59,30.09,30.00,15,1,16,0.51
2012-2-7,83.1,73.1,67.8,68.9,64.5,59.7,92,76,47,30.06,29.97,11,2,13,0.00
2012-2-8,79.9,71.7,66.9,63.9,60.3,54.9,83,69,43,30.12,30.00,9,2,12,0.00
2012-2-9,79.7,70.1,63.3,59.3,52.6,46.1,72,55,41,30.15,30.06,14,4,15,0.00
2012-2-10,82.8,71.1,65.8,66.0,62.8,59.3,91,76,48,30.09,29.94,16,3,16,0.00
2012-2-11,71.4,67.1,60.6,65.1,56.0,0.0,91,70,38,30.06,29.94,13,3,16,0.33
2012-2-12,61.9,53.1,46.2,27.5,23.4,18.7,47,32,24,30.33,30.21,20,5,20,0.00
2012-2-13,73.4,57.4,43.3,47.4,36.6,24.0,68,47,32,30.30,30.12,12,3,12,0.00
2012-2-14,79.7,66.2,53.8,55.0,49.3,45.4,80,57,33,30.18,30.09,13,2,16,0.00
2012-2-15,85.3,69.5,58.8,59.3,54.4,49.1,83,61,30,30.24,30.12,13,2,13,0.00
2012-2-16,83.1,71.0,61.9,63.2,56.7,50.9,86,63,33,30.24,30.12,16,2,16,0.00
2012-2-17,80.6,71.5,64.8,66.8,59.3,54.8,89,67,42,30.15,30.06,16,2,16,0.00
2012-2-18,82.0,71.2,64.0,65.3,59.5,54.2,86,68,39,30.09,29.97,12,2,14,0.00
2012-2-19,80.8,73.8,68.9,71.2,65.5,57.9,91,76,59,30.03,29.94,26,6,26,0.00
2012-2-20,80.8,69.6,61.9,57.9,48.5,42.3,68,49,30,30.24,30.00,9,3,12,0.00
2012-2-21,83.1,67.8,57.0,57.6,51.5,46.7,80,58,30,30.27,30.15,13,3,13,0.00
2012-2-22,79.5,69.6,61.2,61.1,56.1,51.5,80,64,39,30.21,30.03,16,2,18,0.00
2012-2-23,82.4,72.9,64.6,68.4,60.8,54.7,90,68,41,30.09,30.00,16,3,20,0.00
2012-2-24,85.8,75.3,68.5,72.4,62.9,56.2,92,69,37,30.12,30.03,22,3,23,0.00
2012-2-25,82.4,72.3,65.8,70.9,58.8,46.2,91,65,42,30.27,30.09,15,4,16,0.00
2012-2-26,80.1,69.6,63.3,62.6,54.0,44.3,77,58,48,30.33,30.24,13,5,14,0.00
2012-2-27,86.0,74.4,68.9,67.7,63.4,57.7,89,70,39,30.36,30.24,12,3,16,1.75
2012-2-28,89.6,74.7,67.5,71.5,63.6,55.2,93,72,32,30.36,30.24,17,2,17,0.43
2012-2-29,88.3,74.9,67.3,67.2,63.0,58.7,88,69,38,30.30,30.18,14,2,16,0.00
2012-3-1,83.5,74.6,67.8,68.6,62.0,56.1,88,67,40,30.21,30.12,15,2,18,0.00
2012-3-2,86.5,75.2,66.7,67.9,62.5,58.2,87,67,39,30.15,30.06,16,1,16,0.00
2012-3-3,86.4,76.5,68.7,70.4,63.9,58.5,88,67,42,30.06,29.97,16,3,20,0.00
2012-3-4,76.8,69.6,57.7,69.8,46.8,26.5,81,49,23,30.32,29.91,22,5,22,0.05
2012-3-5,78.6,63.5,51.4,39.7,32.8,27.3,48,33,18,30.44,30.29,16,3,19,0.00
2012-3-6,82.0,67.6,54.7,53.2,44.5,36.5,62,45,25,30.47,30.35,18,4,20,0.00
2012-3-7,84.0,72.2,64.4,59.9,55.1,51.4,70,56,36,30.44,30.32,15,5,16,0.00
2012-3-8,83.8,73.7,66.9,64.7,61.6,58.3,86,67,44,30.35,30.24,13,3,15,0.00
2012-3-9,80.1,72.2,67.1,68.1,64.1,60.7,88,77,53,30.32,30.21,16,1,16,0.17
2012-3-10,83.3,73.2,66.7,67.7,63.2,57.0,91,73,42,30.32,30.21,14,2,15,0.05
2012-3-11,87.1,75.3,67.8,65.4,60.7,53.6,86,63,33,30.38,30.27,13,3,16,0.01
2012-3-12,87.1,74.4,67.3,61.2,56.3,49.9,79,56,31,30.41,30.29,14,4,16,0.00
2012-3-13,87.1,73.5,64.6,58.4,53.8,49.7,79,53,29,30.38,30.27,12,2,12,0.00
2012-3-14,85.8,73.6,63.7,58.9,54.4,50.4,75,53,31,30.35,30.27,13,3,13,0.00
2012-3-15,85.1,73.0,65.5,62.7,58.8,54.9,79,62,38,30.35,30.27,16,3,19,0.00
2012-3-16,87.4,72.9,66.9,63.3,59.9,51.3,82,66,31,30.38,30.27,12,2,12,0.00
2012-3-17,88.2,74.5,64.8,60.9,54.8,47.1,82,55,25,30.38,30.27,12,2,13,0.00
2012-3-18,88.9,75.0,64.6,59.5,54.0,45.0,77,52,22,30.38,30.27,14,2,16,0.00
2012-3-19,89.4,73.7,66.4,61.1,55.2,45.0,79,56,23,30.32,30.21,12,2,15,0.00
2012-3-20,89.1,75.3,66.2,61.5,54.2,48.5,78,50,28,30.27,30.18,15,3,15,0.00
2012-3-21,87.6,74.7,66.6,66.2,59.6,54.4,83,61,34,30.29,30.21,18,3,18,0.00
2012-3-22,90.0,77.7,69.4,66.7,59.5,52.2,84,57,32,30.32,30.24,15,3,16,0.00
2012-3-23,86.0,75.2,67.6,64.6,58.8,51.3,82,59,34,30.32,30.21,16,2,18,0.00
2012-3-24,82.8,74.9,67.1,64.0,59.9,53.0,79,61,38,30.27,30.15,20,2,20,0.00
2012-3-25,78.1,72.9,68.5,68.4,62.1,56.3,88,70,50,30.21,30.09,24,4,27,0.03
2012-3-26,80.4,72.3,63.0,60.1,51.9,40.8,78,52,25,30.24,30.15,15,2,16,0.00
2012-3-27,88.0,73.7,63.5,60.3,53.2,48.7,72,51,28,30.41,30.24,12,3,14,0.00
2012-3-28,88.9,74.4,63.9,58.3,52.4,42.0,73,50,21,30.41,30.29,14,3,14,0.00
2012-3-29,84.6,73.4,65.7,61.0,56.3,48.5,79,57,29,30.35,30.24,13,2,13,0.00
2012-3-30,90.9,74.1,62.2,59.6,54.7,45.0,73,53,21,30.35,30.27,16,2,19,0.00
2012-3-31,83.7,75.3,66.2,69.3,62.5,57.3,83,66,42,30.32,30.21,20,4,22,0.00
2012-4-1,83.8,76.0,68.5,69.7,61.9,50.9,88,65,32,30.27,30.18,13,2,14,0.00
2012-4-2,85.1,74.9,65.8,67.1,57.9,47.4,86,59,29,30.27,30.21,15,2,16,0.00
2012-4-3,88.7,75.5,65.1,63.3,56.9,47.9,82,56,29,30.32,30.21,15,2,19,0.00
2012-4-4,88.0,77.0,68.5,66.8,60.6,52.5,82,60,31,30.32,30.18,20,3,20,0.00
2012-4-5,82.2,76.0,69.4,69.2,64.3,60.4,83,68,49,30.24,30.12,18,4,25,0.01
2012-4-6,81.3,77.0,69.8,72.0,59.5,48.0,86,56,38,30.29,30.12,20,6,26,0.30
2012-4-7,85.5,73.2,63.7,58.0,53.5,50.2,72,52,31,30.47,30.29,16,4,16,0.00
2012-4-8,88.0,73.2,62.2,53.3,50.3,43.3,68,47,23,30.50,30.06,12,4,14,0.00
2012-4-9,88.2,74.0,63.3,57.3,51.2,42.3,71,48,21,30.12,30.00,9,2,11,0.00
2012-4-10,85.8,73.8,65.1,61.1,56.0,49.1,73,56,29,30.12,30.00,12,1,14,0.00
2012-4-11,81.9,74.0,66.9,62.0,57.2,49.0,79,58,33,30.09,30.03,18,2,22,0.00
2012-4-12,83.5,73.6,64.0,61.1,55.6,48.8,81,56,31,30.09,30.00,15,2,18,0.00
2012-4-13,86.0,75.6,67.3,63.8,58.3,48.6,79,57,30,30.12,30.00,18,3,18,0.00
2012-4-14,82.2,73.6,68.9,64.4,59.9,55.3,83,63,43,30.21,30.09,16,4,16,0.00
2012-4-15,87.3,75.1,65.5,57.9,53.5,49.4,74,50,28,30.21,30.15,16,4,16,0.00
2012-4-16,87.3,75.6,65.5,57.7,52.8,44.7,68,47,23,30.21,30.12,14,4,14,0.00
2012-4-17,87.4,75.2,66.6,58.9,54.1,47.8,68,50,26,30.18,30.06,15,3,16,0.00
2012-4-18,85.8,75.8,67.3,63.0,56.8,51.4,71,53,31,30.12,29.97,16,3,18,0.00
2012-4-19,86.2,76.6,70.2,64.9,61.3,52.9,75,61,32,30.03,29.91,16,3,20,0.00
2012-4-20,86.0,77.3,70.3,67.2,62.6,57.7,80,62,39,29.94,29.85,19,3,20,1.99
2012-4-21,73.6,70.6,68.4,66.4,63.8,59.2,89,79,65,29.91,29.67,20,4,23,0.31
2012-4-22,78.4,73.2,66.6,69.5,59.2,49.2,92,63,41,29.79,29.59,30,6,41,0.44
2012-4-23,76.1,70.7,62.8,51.2,46.4,41.6,61,42,32,29.97,29.79,23,4,23,0.00
2012-4-24,72.9,66.3,58.5,48.0,40.5,32.3,68,40,24,30.09,29.94,19,3,25,0.00
2012-4-25,81.5,67.7,55.2,53.2,43.7,37.4,66,44,22,30.15,30.06,15,3,16,0.00
2012-4-26,83.8,70.8,58.8,55.3,51.0,46.7,77,52,28,30.18,30.06,13,2,13,0.00
2012-4-27,88.9,75.1,63.5,60.9,56.2,51.5,78,54,30,30.15,30.03,12,2,13,0.00
2012-4-28,91.4,76.6,70.0,68.5,63.7,57.3,82,66,34,30.09,30.03,16,2,16,0.01
2012-4-29,77.2,73.6,71.8,68.3,65.0,62.4,86,75,66,30.12,30.03,16,3,16,0.03
2012-4-30,82.2,74.8,70.7,71.8,63.3,60.2,85,68,50,30.09,30.00,22,6,26,0.28
2012-5-1,89.2,76.5,71.6,70.5,66.3,60.2,85,72,39,30.06,30.00,16,4,23,0.37
2012-5-2,87.3,77.9,70.9,69.1,65.1,61.1,89,66,43,30.09,30.00,12,4,14,0.00
2012-5-3,92.8,79.2,70.2,67.3,63.4,55.0,86,61,29,30.12,30.03,12,3,13,0.00
2012-5-4,87.6,78.4,71.2,67.6,63.5,59.0,83,62,40,30.12,30.00,10,2,12,0.00
2012-5-5,85.5,77.6,68.5,67.3,62.7,57.2,81,61,39,30.06,29.94,13,2,15,0.00
2012-5-6,87.8,77.7,70.3,67.3,63.9,58.6,81,64,39,30.03,29.94,18,3,18,0.00
2012-5-7,85.8,77.5,70.9,68.3,63.9,59.1,84,65,41,29.97,29.88,16,3,19,0.00
2012-5-8,85.6,77.7,70.9,69.4,64.5,60.4,85,65,43,29.94,29.88,16,3,19,0.00
2012-5-9,87.3,78.4,71.2,71.1,65.1,58.5,85,65,39,29.94,29.85,16,5,20,1.09
2012-5-10,84.7,80.6,74.3,70.2,65.4,61.4,83,61,46,29.94,29.85,20,5,20,0.00
2012-5-11,95.0,79.2,69.6,67.0,61.9,54.2,75,58,26,30.12,29.91,15,3,16,0.00
2012-5-12,95.2,81.3,73.0,68.9,62.2,54.0,80,56,27,30.18,30.06,18,5,18,0.00
2012-5-13,93.6,78.6,71.1,68.6,62.1,49.9,83,61,23,30.15,30.00,20,3,20,0.49
2012-5-14,90.0,79.1,72.1,71.1,65.1,57.1,88,65,36,30.09,29.94,16,2,16,0.00
2012-5-15,89.1,78.7,72.9,68.3,64.9,60.7,77,64,40,30.03,29.97,13,1,13,0.19
2012-5-16,82.2,75.9,72.0,72.6,67.6,63.0,90,76,53,30.06,29.94,7,0,9,0.08
2012-5-17,84.2,76.9,70.9,72.7,67.6,62.2,94,75,49,30.00,29.91,18,3,18,0.29
2012-5-18,85.8,78.9,72.5,70.0,66.5,61.7,87,67,46,29.97,29.88,16,2,16,0.05
2012-5-19,89.1,78.6,71.6,69.4,63.4,57.2,85,62,36,30.00,29.88,13,2,13,0.00
2012-5-20,90.3,78.5,70.5,69.3,65.0,59.1,89,66,37,30.00,29.91,14,3,16,0.00
2012-5-21,87.4,79.2,71.1,66.8,64.1,58.0,83,62,37,30.03,29.94,16,3,16,0.00
2012-5-22,90.3,79.8,70.5,65.6,59.3,50.1,77,53,28,30.00,29.91,17,2,17,0.00
2012-5-23,94.1,80.9,73.6,69.7,65.5,58.4,83,62,31,29.94,29.82,19,2,19,0.00
2012-5-24,92.5,82.0,73.0,69.1,66.4,62.8,86,62,39,29.94,29.85,15,3,18,0.00
2012-5-25,93.9,81.9,73.6,69.8,66.2,61.0,80,61,34,30.06,29.91,9,2,12,0.01
2012-5-26,97.2,83.4,74.3,72.2,65.4,51.3,88,59,22,30.06,29.94,12,2,15,0.00
2012-5-27,87.4,79.1,73.2,70.9,67.0,60.0,80,67,40,30.00,29.91,12,2,16,0.00
2012-5-28,89.8,82.2,75.7,69.8,66.2,57.9,77,60,35,30.00,29.91,17,4,21,0.00
2012-5-29,87.6,81.4,74.5,70.0,66.1,61.2,79,61,43,30.00,29.94,16,4,20,0.00
2012-5-30,87.6,81.2,73.8,71.2,66.3,60.1,81,62,43,29.97,29.88,20,4,20,0.00
2012-5-31,87.1,79.9,75.2,70.9,66.9,58.6,81,66,40,29.97,29.88,12,2,13,0.00
2012-6-1,83.3,78.3,73.6,71.4,69.5,65.2,90,75,61,30.00,29.88,16,4,20,0.06
2012-6-2,86.2,80.9,75.6,74.8,68.3,60.9,91,67,43,30.03,29.91,15,3,17,0.01
2012-6-3,88.7,81.7,73.0,72.5,66.2,59.7,87,61,38,30.09,29.97,15,3,16,0.00
2012-6-4,87.1,80.7,72.7,71.9,68.0,63.4,82,66,47,30.03,29.91,15,3,18,0.00
2012-6-5,88.2,83.0,79.9,72.9,70.4,65.4,78,66,47,29.94,29.82,16,4,19,0.00
2012-6-6,86.0,80.4,72.5,73.5,69.4,62.4,83,70,56,29.97,29.88,15,2,22,0.29
2012-6-7,90.7,82.7,77.5,73.2,68.6,61.6,84,64,42,30.00,29.91,20,4,22,0.00
2012-6-8,89.6,82.6,77.7,75.3,71.3,66.5,84,70,48,30.00,29.91,20,3,20,0.00
2012-6-9,92.5,81.2,72.1,74.5,69.7,64.7,92,71,40,30.06,29.94,13,4,16,0.42
2012-6-10,95.5,82.6,75.9,76.2,71.5,64.6,89,72,37,30.12,30.00,12,2,17,0.72
2012-6-11,96.4,84.2,75.7,75.3,68.7,62.4,91,64,35,30.15,30.06,12,3,16,0.01
2012-6-12,95.0,83.2,73.9,69.8,65.3,57.5,80,57,29,30.12,29.97,12,2,12,0.00
2012-6-13,89.8,82.5,74.5,70.9,66.0,62.4,72,58,43,30.00,29.94,13,3,16,0.00
2012-6-14,89.2,82.9,76.8,73.6,69.4,64.8,86,65,48,30.03,29.91,15,2,16,0.00
2012-6-15,93.0,80.4,73.8,70.4,66.9,59.6,86,66,34,30.06,29.94,15,2,16,0.38
2012-6-16,93.6,79.5,73.6,72.3,68.3,59.2,88,72,33,30.06,29.97,12,2,15,0.51
2012-6-17,92.7,80.7,71.4,68.9,62.5,54.8,87,58,30,30.06,29.94,16,3,16,0.00
2012-6-18,94.5,81.5,70.9,64.2,58.9,53.1,72,49,27,30.03,29.97,18,4,18,0.00
2012-6-19,86.7,79.8,72.9,67.3,63.2,58.9,75,58,40,30.06,29.97,16,5,16,0.00
2012-6-20,86.5,79.6,75.9,72.9,70.0,67.0,87,73,56,30.00,29.94,16,5,16,0.00
2012-6-21,88.2,78.7,75.0,75.5,71.5,66.5,91,80,50,30.00,29.91,14,3,15,0.28
2012-6-22,81.5,77.0,73.9,74.9,73.4,70.6,94,89,73,30.00,29.85,9,1,12,0.45
2012-6-23,79.3,76.1,73.0,76.5,73.8,71.5,95,92,85,29.97,29.88,11,2,14,0.31
2012-6-24,82.4,78.8,74.5,78.9,75.0,71.4,96,88,78,29.97,29.82,22,7,24,0.85
2012-6-25,80.6,79.6,78.4,73.1,72.2,71.4,83,78,75,29.85,29.82,23,7,23,0.00
2012-7-2,82.4,80.3,79.0,70.1,68.7,66.7,73,68,59,30.09,30.06,5,1,8,0.00
2012-7-3,99.0,83.4,75.0,71.0,67.5,56.9,82,62,25,30.09,30.00,14,1,14,0.00
2012-7-4,93.2,82.4,77.0,72.5,69.0,61.5,85,65,40,30.12,30.00,11,1,13,0.00
2012-7-5,91.4,79.7,74.3,74.1,69.1,62.8,90,72,40,30.09,30.00,12,1,12,0.77
2012-7-6,91.0,78.6,72.9,74.1,71.0,66.3,88,79,46,30.06,30.03,12,1,12,0.15
2012-7-7,94.6,79.6,73.6,76.0,71.3,64.5,93,78,38,30.09,30.03,13,1,16,0.38
2012-7-8,96.3,81.0,74.1,76.2,70.7,62.7,93,75,34,30.12,30.03,16,1,16,0.92
2012-7-9,93.9,80.1,73.4,74.8,69.9,64.5,91,73,39,30.06,29.97,18,2,18,0.03
2012-7-10,95.7,80.3,75.0,74.3,70.4,63.6,89,74,37,30.06,29.97,11,2,16,0.03
2012-7-11,90.7,78.4,73.8,76.0,71.2,63.6,94,80,41,30.06,29.97,11,2,13,0.63
2012-7-12,89.4,80.3,74.5,75.8,71.8,65.1,94,77,45,30.03,29.97,12,2,12,0.03
2012-7-13,90.0,79.1,75.7,76.1,72.9,68.9,93,82,53,30.09,30.00,19,1,19,0.97
2012-7-14,91.2,79.1,73.9,76.6,72.4,66.4,95,81,45,30.09,30.00,12,2,14,0.76
2012-7-15,90.0,78.7,73.6,76.3,72.3,62.3,95,83,40,30.12,30.03,13,2,16,0.24
2012-7-16,87.6,78.3,73.0,75.9,71.7,67.3,94,81,53,30.12,30.00,11,1,11,0.02
2012-7-17,85.8,79.1,74.3,74.2,70.7,66.1,95,77,53,30.09,30.00,12,2,17,0.05
2012-7-18,91.2,82.8,74.5,75.1,71.6,65.1,92,71,44,30.15,30.03,13,3,16,0.00
2012-7-19,94.1,85.0,77.7,77.4,73.8,67.0,92,71,42,30.21,30.12,11,2,12,0.00
2012-7-20,98.6,84.7,77.2,76.7,72.7,63.5,91,70,33,30.15,30.03,20,2,20,0.44
2012-7-21,95.7,81.4,76.3,77.3,72.9,66.8,91,77,40,30.12,30.03,14,1,18,0.08
2012-7-22,88.7,78.9,74.3,78.7,73.3,68.8,94,84,60,30.15,30.03,11,2,12,0.10
2012-7-23,89.8,80.1,74.3,78.5,72.9,69.1,94,80,51,30.18,30.09,14,2,14,0.15
2012-7-24,90.1,81.9,75.2,78.3,71.0,66.9,92,71,50,30.18,30.06,13,2,16,0.00
2012-7-25,90.5,83.4,76.3,75.6,70.9,65.8,85,67,45,30.09,30.03,13,2,20,0.00
2012-7-26,90.0,83.8,76.8,75.2,71.8,67.5,88,69,49,30.09,30.00,13,3,16,0.00
2012-7-27,91.0,82.9,77.2,76.9,70.7,63.2,86,68,40,30.12,30.03,12,2,14,0.10
2012-7-28,89.6,81.2,76.1,76.9,72.2,68.8,89,75,52,30.15,30.06,9,1,15,0.28
2012-7-29,90.5,83.4,76.8,75.5,71.2,65.9,90,69,47,30.12,30.03,16,3,16,0.00
2012-7-30,92.1,83.1,77.0,74.4,71.1,65.4,88,69,43,30.09,30.00,16,2,16,0.00
2012-7-31,91.9,82.5,75.4,74.0,70.4,64.8,84,68,43,30.09,30.00,13,2,16,0.00
2012-8-1,91.0,83.5,76.5,74.8,70.5,63.9,86,67,41,30.06,29.97,17,3,20,0.00
2012-8-2,91.9,84.8,77.4,74.1,69.2,62.8,86,62,39,30.03,29.94,12,2,16,0.00
2012-8-3,95.0,82.5,76.5,73.5,69.5,60.2,86,67,32,30.03,29.94,12,1,16,0.06
2012-8-4,97.0,83.3,75.4,75.0,69.8,61.5,90,67,32,30.09,29.97,12,2,12,0.00
2012-8-5,95.0,81.2,76.5,76.0,72.2,65.2,90,76,40,30.12,30.03,12,2,14,0.95
2012-8-6,94.3,80.5,76.3,77.0,73.7,66.7,94,82,42,30.09,30.00,16,2,20,2.59
2012-8-7,98.4,84.9,75.6,79.2,71.8,61.5,95,69,30,30.06,29.97,11,2,11,0.00
2012-8-8,97.0,84.8,77.5,76.9,71.4,66.3,89,67,38,30.09,29.97,12,2,14,0.00
2012-8-9,97.5,82.2,72.1,76.6,71.8,63.5,94,73,36,30.06,29.91,14,2,15,1.85
2012-8-10,94.3,79.4,73.6,77.6,71.8,64.2,94,80,38,30.03,29.94,11,2,13,0.21
2012-8-11,88.2,79.2,74.1,75.5,72.0,65.4,95,80,47,30.06,29.97,11,2,12,0.07
2012-8-12,86.4,78.9,76.3,77.5,73.4,69.7,93,84,60,30.12,29.97,9,0,11,2.43
2012-8-13,91.2,81.5,75.7,78.8,73.5,67.4,96,79,48,30.12,30.00,9,1,15,0.13
2012-8-14,91.8,81.7,75.9,77.8,72.4,63.7,93,76,40,30.09,30.00,12,1,15,0.00
2012-8-15,95.0,81.7,75.7,76.6,72.8,66.8,90,76,41,30.09,30.00,12,0,13,0.65
2012-8-16,90.1,82.1,77.2,78.5,74.7,70.6,93,79,54,30.12,30.03,12,1,13,0.56
2012-8-17,89.2,83.0,77.7,76.7,73.3,67.3,90,74,50,30.09,29.97,13,2,15,0.00
2012-8-18,89.2,82.3,76.8,76.3,72.1,63.8,93,72,46,30.03,29.94,12,2,14,0.19
2012-8-19,91.6,84.0,77.4,76.7,71.8,64.0,89,69,43,30.03,29.94,16,3,17,0.00
2012-8-20,93.0,84.9,78.8,76.4,72.0,65.9,87,67,42,30.03,29.94,19,3,19,0.00
2012-8-21,93.4,84.2,74.7,75.0,70.6,62.3,89,66,37,30.15,30.00,16,3,20,2.21
2012-8-22,93.7,81.2,73.8,73.5,70.5,64.5,94,73,39,30.15,30.03,13,3,14,0.56
2012-8-23,96.6,81.0,73.9,71.5,68.1,61.3,89,68,33,30.12,30.00,20,1,20,0.27
2012-8-24,95.2,82.6,75.4,74.6,67.7,59.9,89,63,35,30.06,29.94,16,3,23,0.00
2012-8-25,83.3,78.8,74.3,74.4,70.0,66.2,88,75,63,30.03,29.91,13,4,16,0.08
2012-8-26,82.9,78.3,75.2,76.6,74.1,70.9,97,87,70,29.94,29.67,25,8,26,1.46
2012-8-27,86.9,80.9,76.6,80.5,75.9,71.6,97,86,67,29.91,29.67,34,8,35,1.32
2012-8-28,91.2,83.9,79.5,77.8,74.7,69.7,91,75,52,30.00,29.91,22,5,23,0.05
2012-8-29,91.0,83.6,77.9,77.9,72.8,65.9,93,72,45,30.03,29.94,15,4,19,0.00
2012-8-30,93.4,82.5,76.8,77.1,73.1,65.9,91,75,42,30.12,29.97,11,1,11,0.33
2012-8-31,94.3,83.5,76.5,78.0,73.0,67.6,93,73,43,30.18,30.09,12,2,12,0.00
2012-9-1,95.0,84.7,77.4,77.9,71.2,64.0,93,67,37,30.15,30.03,12,2,15,0.00
2012-9-2,94.6,86.2,75.4,71.6,66.1,62.6,83,53,35,30.09,29.97,11,3,12,0.00
2012-9-3,92.1,82.5,75.0,70.8,68.1,63.5,82,63,39,30.09,29.97,12,2,16,0.00
2012-9-4,90.5,81.1,75.4,73.9,70.1,63.3,86,71,47,30.06,29.97,12,2,13,0.00
2012-9-5,90.1,81.7,75.4,73.7,70.2,65.4,89,70,46,30.03,29.94,15,4,18,0.06
2012-9-6,89.8,80.5,73.6,75.6,70.1,65.9,88,73,46,30.06,29.97,18,3,18,0.00
2012-9-7,91.4,81.3,74.8,73.0,70.3,65.5,90,71,45,30.03,29.94,12,2,14,0.00
2012-9-8,89.2,81.5,0.0,74.9,70.8,0.0,89,71,49,30.03,29.91,15,3,22,0.00
2012-9-9,86.7,82.4,77.7,74.8,71.6,68.7,88,71,58,30.03,29.94,18,5,20,0.14
2012-9-10,87.6,80.6,77.0,78.3,74.7,70.2,94,84,58,30.06,29.97,18,2,18,0.35
2012-9-11,92.5,81.9,75.6,76.2,71.8,65.9,88,73,43,30.12,30.00,19,3,19,0.08
2012-9-12,93.9,82.6,75.6,74.4,69.3,60.4,93,68,35,30.12,30.00,16,4,16,0.00
2012-9-13,86.5,81.0,77.0,71.6,69.6,66.1,80,69,51,30.06,29.97,12,4,13,0.00
2012-9-14,93.6,80.9,75.0,74.6,70.4,63.8,90,73,39,30.06,29.97,11,3,15,0.00
2012-9-15,94.5,80.5,75.7,76.7,72.3,64.4,90,78,38,30.06,30.00,11,2,15,0.58
2012-9-16,89.1,79.5,75.7,74.9,73.4,69.7,95,83,53,30.06,29.97,15,2,18,23.96
2012-9-17,86.0,79.5,75.0,75.8,73.6,68.6,95,83,62,30.03,29.94,16,2,16,0.12
2012-9-18,88.7,79.6,75.2,80.5,73.6,66.5,96,83,52,30.00,29.91,22,3,25,0.41
2012-9-19,87.8,81.5,75.0,77.1,70.5,61.1,97,72,43,30.06,29.97,11,1,12,0.00
2012-9-20,91.4,80.3,75.9,74.2,70.5,63.8,91,74,46,30.06,29.94,14,2,14,0.00
2012-9-21,90.7,78.2,73.8,75.2,70.3,61.7,94,78,44,30.03,29.91,12,1,15,1.07
2012-9-22,85.3,76.4,73.6,78.2,73.1,68.5,96,90,60,30.06,29.94,8,1,9,0.30
2012-9-23,89.8,80.1,73.8,75.8,70.2,61.9,96,75,43,30.09,30.03,11,2,11,0.00
2012-9-24,88.3,79.6,73.6,73.9,68.3,63.0,91,70,43,30.12,30.00,11,2,12,0.00
2012-9-25,88.2,78.1,73.0,73.2,66.7,62.3,93,69,48,30.12,30.03,9,2,12,0.65
2012-9-26,90.7,79.8,74.7,74.4,71.1,62.9,95,77,43,30.12,30.03,9,2,11,0.00
2012-9-27,94.8,80.3,74.1,75.7,69.2,63.7,91,71,37,30.12,30.00,14,1,16,0.01
2012-9-28,94.6,81.9,75.0,76.8,69.7,61.5,96,69,37,30.06,29.94,9,1,12,0.00
2012-9-29,88.7,81.3,74.3,74.3,69.4,64.5,91,69,48,30.00,29.85,0,0,0,0.00
2012-9-30,92.8,80.1,74.8,73.7,71.0,63.3,89,76,39,29.94,29.82,0,0,0,0.15
2012-10-1,86.4,78.7,75.7,78.9,74.7,70.8,95,88,61,29.88,29.79,0,0,0,1.08
2012-10-2,88.3,78.2,74.5,79.9,74.3,68.9,98,89,53,30.06,29.85,0,0,0,2.06
2012-10-3,94.8,82.0,75.2,78.9,73.6,67.4,97,78,43,30.18,30.03,0,0,0,0.00
2012-10-4,93.4,80.7,76.5,79.2,73.4,69.2,95,80,46,30.18,30.09,0,0,0,0.07
2012-10-5,93.7,79.8,72.5,79.6,72.9,64.9,97,82,42,30.12,29.94,0,0,0,1.33
2012-10-6,87.8,80.2,74.1,79.8,71.8,66.6,97,78,51,30.00,29.88,0,0,0,29.06
2012-10-7,91.8,78.9,74.8,75.2,72.3,64.8,95,82,42,30.00,29.91,0,0,0,0.40
2012-10-8,90.7,78.3,74.1,77.4,72.9,66.4,96,85,45,30.03,29.94,0,0,0,0.80
2012-10-9,91.8,79.6,73.4,76.2,71.7,65.5,95,79,45,30.06,29.97,0,0,0,0.10
2012-10-10,91.4,80.7,74.5,75.4,70.3,63.8,95,73,43,30.12,30.00,0,0,0,29.99
2012-10-11,89.2,79.1,71.2,69.9,63.5,57.8,85,62,37,30.15,30.06,0,0,0,0.00
2012-10-12,88.0,77.9,70.2,66.2,60.9,53.9,84,59,33,30.15,30.09,0,0,0,0.00
2012-10-13,87.3,77.6,69.8,64.5,61.6,59.1,79,59,40,30.15,30.06,0,0,0,0.00
2012-10-14,88.7,78.3,71.8,71.0,67.9,63.6,88,72,45,30.09,29.97,0,0,0,29.99
2012-10-15,90.7,79.3,74.7,76.4,71.3,64.5,96,78,42,29.97,29.82,0,0,0,0.00
2012-10-16,88.7,79.4,73.6,72.0,67.6,59.5,90,69,38,29.91,29.79,0,0,0,0.00
2012-10-17,84.6,77.0,73.0,72.8,69.2,66.2,94,78,56,29.91,29.82,0,0,0,30.18
2012-10-18,87.4,78.1,72.7,77.2,71.5,67.2,96,82,53,29.91,29.82,0,0,0,0.27
2012-10-19,87.6,79.2,73.8,75.3,71.1,66.4,95,78,50,29.91,29.85,0,0,0,0.02
2012-10-20,87.3,79.0,73.0,73.8,67.4,60.1,92,70,43,29.97,29.85,0,0,0,0.00
2012-10-21,88.3,76.6,66.9,65.0,53.9,48.3,75,47,27,30.03,29.94,0,0,0,0.00
2012-10-22,88.2,75.9,0.0,63.2,59.1,0.0,79,57,34,30.06,29.94,0,0,0,0.00
2012-10-23,88.9,77.9,69.1,65.7,61.6,53.4,79,60,31,30.03,29.91,0,0,0,0.00
2012-10-24,87.6,78.3,72.3,69.3,65.1,57.8,86,66,38,30.00,29.85,0,0,0,0.00
2012-10-25,81.3,77.5,73.9,69.7,67.6,65.6,86,72,62,29.88,29.76,0,0,0,0.00
2012-10-26,84.0,76.3,73.6,69.3,62.7,55.0,85,64,37,29.76,29.62,0,0,0,0.01
2012-10-27,78.4,74.0,0.0,60.5,57.9,0.0,63,57,47,29.77,29.62,0,0,0,0.00
2012-10-28,77.2,74.4,70.5,63.5,56.6,48.2,69,55,39,29.83,29.74,0,0,0,0.00
2012-10-29,70.9,67.7,63.3,50.4,45.6,39.3,58,45,35,29.91,29.83,0,0,0,0.00
2012-10-30,69.3,66.5,65.5,46.0,44.2,41.2,49,45,36,30.03,29.94,0,0,0,0.00
2012-10-31,74.7,66.3,57.6,54.2,49.3,45.1,74,56,38,30.09,30.00,0,0,0,0.00
2012-11-1,77.9,68.0,58.6,64.4,56.0,51.6,91,67,43,30.09,30.00,0,0,0,0.00
2012-11-2,80.6,70.5,63.3,63.3,53.7,36.7,90,61,21,30.12,30.03,0,0,0,0.00
2012-11-3,87.1,69.0,58.5,57.0,51.8,43.3,83,59,23,30.18,30.06,0,0,0,0.00
2012-11-4,81.5,66.6,0.0,64.3,52.8,0.0,89,60,31,30.15,30.03,0,0,0,0.00
2012-11-5,78.1,70.4,65.1,64.4,60.6,55.6,85,72,47,30.06,29.97,0,0,0,0.00
2012-11-6,79.5,69.6,65.7,67.0,62.7,54.3,90,80,44,29.97,29.88,0,0,0,0.01
2012-11-7,71.4,66.9,62.4,64.6,52.8,43.9,90,63,40,30.00,29.88,0,0,0,0.00
2012-11-8,57.2,57.2,57.2,39.2,39.2,39.2,51,51,51,30.18,30.18,0,0,0,0.00
2012-11-9,77.5,63.9,53.4,52.2,42.2,35.7,63,47,23,30.24,30.15,0,0,0,0.00
2012-11-10,77.5,67.1,60.1,52.5,49.2,44.9,68,54,32,30.27,30.18,0,0,0,0.00
2012-11-11,82.0,70.6,62.1,56.7,52.2,46.5,74,55,31,30.27,30.18,0,0,0,0.00
2012-11-12,80.4,72.1,65.7,63.8,60.4,56.3,86,68,45,30.24,30.12,0,0,0,0.00
2012-11-13,82.2,72.7,66.2,65.4,61.0,55.7,89,69,41,30.18,30.09,0,0,0,0.00
2012-11-14,83.8,72.5,66.0,64.2,60.5,54.8,88,68,37,30.15,30.06,0,0,0,0.00
2012-11-15,81.0,71.4,66.0,65.2,61.1,54.1,89,72,40,30.15,30.06,0,0,0,0.00
2012-11-16,76.5,67.6,64.0,61.2,58.1,55.8,82,72,50,30.15,30.06,0,0,0,0.00
2012-11-17,82.6,71.3,62.6,62.8,57.8,53.9,92,65,39,30.12,30.03,0,0,0,0.00
2012-11-18,77.5,70.2,64.8,61.4,58.3,54.7,85,67,48,30.18,30.09,0,0,0,0.00
2012-11-19,76.5,66.0,59.2,54.9,50.3,42.7,77,59,32,30.18,30.03,0,0,0,0.00
2012-11-20,71.4,64.3,59.5,58.9,55.6,51.9,88,74,55,30.09,29.97,0,0,0,0.00
2012-11-21,68.4,61.4,59.5,55.3,50.3,47.7,76,67,49,30.09,30.00,0,0,0,0.00
2012-11-23,74.7,65.7,54.3,46.6,42.1,36.1,68,43,28,30.21,30.09,0,0,0,0.00
2012-11-24,75.4,62.0,51.6,57.4,48.6,41.9,82,64,31,30.15,30.03,0,0,0,0.00
2012-11-25,74.7,63.8,54.1,50.4,44.4,35.6,72,53,25,30.15,30.09,0,0,0,0.00
2012-11-26,82.2,64.6,52.9,57.5,51.8,45.0,88,66,33,30.21,30.12,0,0,0,0.00
2012-11-27,81.1,69.5,60.6,63.1,58.3,51.5,89,70,36,30.21,30.12,0,0,0,0.00
2012-11-28,78.1,69.9,64.6,65.0,58.5,53.3,91,69,43,30.24,30.12,0,0,0,0.00
2012-11-29,81.1,68.5,59.7,57.3,54.6,49.5,84,64,36,30.24,30.15,0,0,0,0.00
2012-11-30,77.7,69.3,63.7,57.9,55.7,52.8,79,63,42,30.24,30.15,0,0,0,0.00
2012-12-1,81.3,70.1,61.5,58.6,54.1,47.5,76,59,31,30.24,30.15,0,0,0,0.00
2012-12-2,82.0,71.6,64.0,63.0,57.8,49.0,88,65,33,30.27,30.15,0,0,0,0.00
2012-12-3,82.6,71.0,61.7,63.3,54.8,45.5,88,60,32,30.27,30.15,0,0,0,0.00
2012-12-4,79.9,68.1,61.0,59.4,54.3,50.4,85,63,36,30.27,30.15,0,0,0,0.00
2012-12-5,77.2,69.0,62.1,61.3,57.7,53.8,84,68,49,30.18,30.06,0,0,0,0.00
2012-12-6,80.1,71.0,65.1,67.6,61.6,56.2,92,74,44,30.06,29.91,0,0,0,0.41
2012-12-7,80.6,70.5,63.9,68.3,61.6,56.5,94,75,46,30.00,29.91,0,0,0,0.00
2012-12-8,81.5,71.3,66.0,69.4,64.0,61.1,92,79,54,30.06,29.97,0,0,0,0.92
2012-12-9,83.8,75.4,66.4,74.2,67.7,62.6,97,79,51,30.12,30.00,0,0,0,0.98
2012-12-10,83.8,75.7,68.9,76.1,69.8,65.5,97,83,61,30.03,29.91,0,0,0,0.27
2012-12-11,79.7,73.8,70.5,73.3,71.3,69.9,98,92,77,30.06,29.94,0,0,0,2.57
2012-12-12,78.4,75.2,72.1,76.4,72.9,71.1,98,93,82,30.09,30.00,0,0,0,3.05
2012-12-13,72.5,69.9,64.4,71.4,64.1,55.7,98,83,69,30.18,30.03,0,0,0,0.00
2012-12-14,77.9,68.1,61.0,60.7,56.9,53.0,89,69,43,30.18,30.06,0,0,0,0.00
2012-12-15,80.8,70.4,62.4,64.1,59.1,54.1,91,70,41,30.15,30.03,0,0,0,0.00
2012-12-16,82.2,71.7,63.9,65.8,61.0,55.7,91,71,41,30.09,29.97,0,0,0,3.03
2012-12-17,81.0,73.9,66.0,67.9,63.8,57.6,92,73,46,30.00,29.94,0,0,0,0.00
2012-12-18,79.3,71.9,67.1,72.6,66.1,61.3,97,83,55,30.06,29.91,0,0,0,3.03
2012-12-19,82.0,69.5,60.6,64.8,55.5,48.8,89,64,34,30.12,30.03,0,0,0,3.03
2012-12-20,82.0,69.5,62.6,66.8,59.7,53.6,91,73,41,30.12,29.97,0,0,0,3.03
2012-12-21,72.1,68.8,63.1,68.4,61.7,46.1,91,79,54,30.12,30.00,0,0,0,0.03
2012-12-22,65.8,57.3,46.4,38.2,30.9,25.0,70,40,23,30.30,30.21,0,0,0,0.00
2012-12-23,71.8,56.2,44.1,51.8,40.0,30.6,81,56,35,30.27,30.15,0,0,0,0.00
2012-12-24,74.3,63.0,53.2,55.8,51.4,48.2,86,68,42,30.15,30.00,0,0,0,0.00
2012-12-25,79.5,67.2,57.9,59.3,54.7,51.7,88,67,40,30.06,29.91,0,0,0,0.00
2012-12-26,79.5,70.2,63.7,69.6,61.8,52.1,94,75,61,30.03,29.88,0,0,0,0.01
2012-12-27,69.3,60.5,54.0,52.4,46.0,37.2,76,61,33,30.12,30.00,0,0,0,0.00
2012-12-28,77.9,65.9,52.5,67.7,56.5,44.8,86,72,54,30.09,29.94,0,0,0,0.00
2012-12-29,77.9,71.7,60.8,73.2,65.4,49.5,97,81,64,30.18,29.94,0,0,0,0.00
2012-12-30,60.6,55.0,48.0,50.0,41.3,32.3,68,60,42,30.33,30.18,0,0,0,3.06
2012-12-31,78.1,63.2,52.0,55.5,48.8,43.4,84,62,37,30.30,30.18,0,0,0,3.06
2013-1-1,75.6,64.2,61.2,57.4,55.6,52.8,82,74,45,30.21,30.15,0,0,0,1.28